Estación de Punta Cortes

Ultimos registro cada 15 minutos 37
Estación Fecha / Hora Temperatura Humedad Lluvia Velocidad Dirección Radiación Presion
37 Punta Cortes 10-05-2026 09:00 4,7 96 0 0 351 265 1019,8
36 Punta Cortes 10-05-2026 08:45 3,7 96 0 0 354 169 1019,9
35 Punta Cortes 10-05-2026 08:30 2,8 96 0 0 44 25 1019,8
34 Punta Cortes 10-05-2026 08:15 2,1 95 0 0 351 23 1019,7
33 Punta Cortes 10-05-2026 08:00 1,6 95 0 0,4 356 19 1019,5
32 Punta Cortes 10-05-2026 07:45 1,5 94 0 0 34 14 1019,5
31 Punta Cortes 10-05-2026 07:30 1,5 95 0 0 30 7 1019,3
30 Punta Cortes 10-05-2026 07:15 1,4 95 0 0 30 0 1019,2
29 Punta Cortes 10-05-2026 07:00 1,5 94 0 0 30 0 1019,2
28 Punta Cortes 10-05-2026 06:45 1,6 95 0 0 340 0 1019,1
27 Punta Cortes 10-05-2026 06:30 1,5 95 0 0 340 0 1019
26 Punta Cortes 10-05-2026 06:15 1,2 94 0 0 340 0 1019
25 Punta Cortes 10-05-2026 06:00 1,2 93 0 0 344 0 1019
24 Punta Cortes 10-05-2026 05:45 1,7 95 0 0,9 13 0 1018,9
23 Punta Cortes 10-05-2026 05:30 1,2 93 0 0 356 0 1018,9
22 Punta Cortes 10-05-2026 05:15 1,4 93 0 0 356 0 1018,9
21 Punta Cortes 10-05-2026 05:00 1,8 94 0 0,4 360 0 1019
20 Punta Cortes 10-05-2026 04:45 1,9 94 0 0 28 0 1018,9
19 Punta Cortes 10-05-2026 04:30 2,2 93 0 0 60 0 1019
18 Punta Cortes 10-05-2026 04:15 2,3 94 0 0,4 3 0 1019
17 Punta Cortes 10-05-2026 04:00 2,2 94 0 0 3 0 1019,1
16 Punta Cortes 10-05-2026 03:45 2,2 93 0 0 4 0 1019,1
15 Punta Cortes 10-05-2026 03:30 2,1 93 0 0 4 0 1019
14 Punta Cortes 10-05-2026 03:15 2,7 92 0 0 4 0 1019
13 Punta Cortes 10-05-2026 03:00 2,7 92 0 0 4 0 1019
12 Punta Cortes 10-05-2026 02:45 3,2 93 0 0 4 0 1019,2
11 Punta Cortes 10-05-2026 02:30 3,2 93 0 0 3 0 1019,3
10 Punta Cortes 10-05-2026 02:15 3,4 93 0 0,4 14 0 1019,5
9 Punta Cortes 10-05-2026 02:00 3 93 0 0,4 356 0 1019,7
8 Punta Cortes 10-05-2026 01:45 3,2 92 0 0 357 0 1019,7
7 Punta Cortes 10-05-2026 01:30 3,2 91 0 0 357 0 1019,8
6 Punta Cortes 10-05-2026 01:15 3,7 91 0 0 357 0 1019,9
5 Punta Cortes 10-05-2026 01:00 4,1 92 0 0 357 0 1020
4 Punta Cortes 10-05-2026 00:45 4,1 92 0 0 356 0 1020,1
3 Punta Cortes 10-05-2026 00:30 4,2 91 0 0 344 0 1020
2 Punta Cortes 10-05-2026 00:15 4,4 91 0 0 331 0 1019,9
1 Punta Cortes 10-05-2026 00:00 4,6 92 0 0 331 0 1019,8